Charlottesville, VA

7:03 AM EDT on October 17, 2019 (GMT -0400)
Charlottesville-Albemarle

Weather History for KCHO - August, 2019

Change the Weather History Date:

Wednesday, August 28, 2019

  Actual Average Record
Temperature  
Mean Temperature 77 °F 73 °F  
Max Temperature 86 °F 84 °F 99 °F (1953)
Min Temperature 68 °F 62 °F 50 °F (1905)
Degree Days  
Heating Degree Days 0 0  
Month to date heating degree days 0 0  
Since 1 June heating degree days 0 12  
Since 1 July heating degree days 0 1  
Cooling Degree Days 12 8  
Month to date cooling degree days 362 258  
Year to date cooling degree days 1430 888  
Since 1 June cooling degree days 1144 802  
Growing Degree Days 27 (Base 50)    
Moisture  
Dew Point 66 °F    
Average Humidity 75    
Maximum Humidity 87    
Minimum Humidity 48    
Precipitation  
Precipitation 0.00 in 0.10 in 2.44 in (2008)
Month to date precipitation 2.65 3.37  
Year to date precipitation 27.95 27.89  
Sea Level Pressure  
Sea Level Pressure 29.90 in    
Wind  
Wind Speed 1 mph ()    
Max Wind Speed 10 mph    
Max Gust Speed 14 mph    
Visibility 10.0 miles    
Events      
T = Trace of Precipitation, MM = Missing Value Source: Averaged Metar Reports

Daily Weather History Graph

Daily Weather History Graph

Search for Another Location

Airport or City:

Astronomy

Aug. 28, 2019 Rise Set
Actual Time 6:39 AM EDT 7:49 PM EDT
Civil Twilight 6:12 AM EDT 8:16 PM EDT
Nautical Twilight 5:40 AM EDT 8:49 PM EDT
Astronomical Twilight 5:06 AM EDT 9:22 PM EDT
Moon 4:12 AM EDT (8/28) 6:57 PM EDT (8/28)
Length of Visible Light 14h 04m
Length of Day
13h 09m
Waning Crescent, 5% of the Moon is Illuminated
Aug 28
Waning Crescent
Aug 30
New
Sep 5
First Quarter
Sep 14
Full
Sep 21
Last Quarter

Hourly Weather History & Observations

Time (EDT) Temp. Heat Index Dew Point Humidity Pressure Visibility Wind Dir Wind Speed Gust Speed Precip Events Conditions
12:53 AM 72.0 °F - 66.9 °F 84% 29.95 in 10.0 mi Calm Calm - N/A   Overcast
1:12 AM 71.1 °F - 66.9 °F 87% 29.97 in 10.0 mi Calm Calm - N/A   Overcast
1:21 AM 72.0 °F - 66.9 °F 84% 29.96 in 10.0 mi Calm Calm - N/A   Overcast
1:53 AM 72.0 °F - 66.9 °F 84% 29.94 in 10.0 mi Calm Calm - N/A   Overcast
2:15 AM 72.0 °F - 66.9 °F 84% 29.95 in 10.0 mi Calm Calm - N/A   Overcast
2:46 AM 72.0 °F - 66.9 °F 84% 29.94 in 10.0 mi Calm Calm - N/A   Overcast
2:53 AM 73.0 °F - 66.9 °F 81% 29.92 in 10.0 mi Calm Calm - N/A   Overcast
3:53 AM 71.1 °F - 66.9 °F 87% 29.91 in 10.0 mi Calm Calm - N/A   Overcast
4:44 AM 71.1 °F - 66.9 °F 87% 29.93 in 10.0 mi Calm Calm - N/A   Overcast
4:53 AM 71.1 °F - 66.9 °F 87% 29.91 in 9.0 mi Calm Calm - N/A   Overcast
5:53 AM 71.1 °F - 66.9 °F 87% 29.91 in 10.0 mi Calm Calm - N/A   Overcast
6:13 AM 71.1 °F - 66.0 °F 84% 29.93 in 10.0 mi Calm Calm - N/A   Overcast
6:53 AM 71.1 °F - 66.9 °F 87% 29.91 in 10.0 mi Calm Calm - N/A   Overcast
7:53 AM 72.0 °F - 66.9 °F 84% 29.89 in 10.0 mi Calm Calm - N/A   Overcast
8:53 AM 73.0 °F - 66.9 °F 81% 29.89 in 10.0 mi Calm Calm - N/A   Overcast
9:53 AM 77.0 °F - 68.0 °F 74% 29.89 in 10.0 mi Variable 3.5 mph - N/A   Partly Cloudy
10:46 AM 79.0 °F - 66.9 °F 66% 29.90 in 10.0 mi SSW 4.6 mph - N/A   Scattered Clouds
10:53 AM 79.0 °F - 68.0 °F 69% 29.88 in 10.0 mi Variable 4.6 mph - N/A   Partly Cloudy
11:53 AM 82.0 °F 84.9 °F 68.0 °F 62% 29.87 in 10.0 mi Variable 3.5 mph - N/A   Partly Cloudy
12:53 PM 82.0 °F 85.5 °F 69.1 °F 65% 29.86 in 10.0 mi Calm Calm - N/A   Clear
1:53 PM 82.9 °F 87.5 °F 71.1 °F 67% 29.85 in 10.0 mi Calm Calm - N/A   Scattered Clouds
2:53 PM 80.1 °F 82.3 °F 66.9 °F 64% 29.85 in 10.0 mi North 9.2 mph - N/A   Overcast
3:53 PM 84.0 °F 84.9 °F 63.0 °F 49% 29.84 in 10.0 mi North 5.8 mph - N/A   Mostly Cloudy
4:53 PM 84.9 °F 85.9 °F 63.0 °F 48% 29.84 in 10.0 mi North 8.1 mph - N/A   Clear
5:53 PM 84.9 °F 86.1 °F 64.0 °F 49% 29.84 in 10.0 mi North 4.6 mph - N/A   Clear
6:53 PM 80.1 °F 82.1 °F 66.0 °F 62% 29.85 in 10.0 mi East 6.9 mph - N/A   Clear
7:53 PM 75.9 °F - 66.0 °F 71% 29.86 in 10.0 mi NNE 3.5 mph - N/A   Clear
8:53 PM 73.0 °F - 66.0 °F 79% 29.88 in 10.0 mi Calm Calm - N/A   Clear
9:53 PM 71.1 °F - 66.0 °F 84% 29.90 in 10.0 mi Calm Calm - N/A   Clear
10:53 PM 73.0 °F - 64.9 °F 76% 29.92 in 10.0 mi Calm Calm - N/A   Clear
11:53 PM 72.0 °F - 57.0 °F 59% 29.93 in 10.0 mi Calm Calm - N/A   Clear